| time (UTC) | temp F | wind direction | speed MPH | gust MPH | rain 1hr in | rain 24hr in | rain mn in | humidity % | barometer mb |
| 20260901022110 | 52 | 113 | 0.0 | 2.0 | 0.00 | 0.01 | 0.01 | 98 | 1018.4 |
| 20260901021600 | 52 | 90 | 1.0 | 2.0 | 0.00 | 0.01 | 0.01 | 98 | 1018.5 |
| 20260901020539 | 52 | 113 | 1.0 | 4.0 | 0.00 | 0.01 | 0.01 | 98 | 1018.3 |
| 20260901020029 | 53 | 45 | 1.0 | 4.0 | 0.00 | 0.01 | 0.01 | 98 | 1018.4 |
| 20260901015519 | 53 | 113 | 0.0 | 2.0 | 0.00 | 0.01 | 0.01 | 98 | 1018.5 |
| 20260901015008 | 53 | 68 | 0.0 | 2.0 | 0.00 | 0.01 | 0.01 | 98 | 1018.4 |
| 20260901013948 | 53 | 180 | 0.0 | 2.0 | 0.00 | 0.01 | 0.01 | 98 | 1018.2 |
| 20260901013438 | 53 | 113 | 0.0 | 2.0 | 0.00 | 0.01 | 0.01 | 98 | 1018.1 |
| 20260901012928 | 53 | 225 | 0.0 | 2.0 | 0.00 | 0.01 | 0.01 | 98 | 1018.0 |
| 20260901012418 | 53 | 90 | 0.0 | 2.0 | 0.00 | 0.01 | 0.01 | 98 | 1018.2 |
| 20260901011908 | 53 | 68 | 0.0 | 2.0 | 0.00 | 0.01 | 0.01 | 98 | 1018.0 |
| 20260901011403 | 53 | 135 | 0.0 | 2.0 | 0.00 | 0.01 | 0.01 | 97 | 1017.8 |
| 20260901010848 | 53 | 225 | 2.0 | 2.0 | 0.00 | 0.01 | 0.01 | 97 | 1017.6 |
| 20260901010338 | 53 | 225 | 1.0 | 4.0 | 0.00 | 0.01 | 0.01 | 97 | 1017.5 |
| 20260901005828 | 53 | 225 | 2.0 | 4.0 | 0.00 | 0.01 | 0.01 | 97 | 1017.5 |
| 20260901005317 | 53 | 225 | 1.0 | 2.0 | 0.00 | 0.01 | 0.01 | 97 | 1017.1 |
| 20260901004807 | 53 | 203 | 1.0 | 4.0 | 0.00 | 0.01 | 0.01 | 97 | 1017.6 |
| 20260901004257 | 53 | 203 | 2.0 | 4.0 | 0.00 | 0.01 | 0.01 | 97 | 1017.5 |
| 20260901003747 | 53 | 180 | 1.0 | 4.0 | 0.00 | 0.01 | 0.01 | 97 | 1017.4 |
| 20260901003237 | 53 | 203 | 1.0 | 4.0 | 0.00 | 0.01 | 0.01 | 97 | 1017.4 |
| 20260901002726 | 53 | 180 | 1.0 | 4.0 | 0.00 | 0.01 | 0.01 | 97 | 1017.6 |
| 20260901001706 | 53 | 203 | 1.0 | 2.0 | 0.00 | 0.01 | 0.01 | 97 | 1017.8 |
| 20260901001156 | 53 | 203 | 0.0 | 2.0 | 0.00 | 0.01 | 0.01 | 97 | 1017.6 |
| 20260901000650 | 53 | 203 | 0.0 | 2.0 | 0.00 | 0.01 | 0.01 | 97 | 1017.6 |
| 20260901000135 | 53 | 90 | 0.0 | 2.0 | 0.00 | 0.01 | 0.01 | 97 | 1017.7 |
| 20260831235626 | 53 | 90 | 0.0 | 2.0 | 0.00 | 0.01 | 0.01 | 97 | 1017.4 |
| 20260831235116 | 53 | 203 | 0.0 | 2.0 | 0.00 | 0.01 | 0.01 | 97 | 1017.4 |
| 20260831234055 | 53 | 90 | 0.0 | 2.0 | 0.00 | 0.01 | 0.01 | 97 | 1017.3 |
| 20260831233545 | 52 | 225 | 1.0 | 2.0 | 0.00 | 0.01 | 0.01 | 97 | 1017.2 |
| 20260831232525 | 53 | 293 | 1.0 | 2.0 | 0.00 | 0.01 | 0.01 | 97 | 1016.9 |
| 20260831232014 | 53 | 158 | 1.0 | 4.0 | 0.00 | 0.01 | 0.01 | 97 | 1016.9 |
| 20260831231506 | 53 | 248 | 1.0 | 4.0 | 0.00 | 0.01 | 0.01 | 97 | 1016.9 |
| 20260831225933 | 53 | 270 | 0.0 | 4.0 | 0.00 | 0.01 | 0.01 | 97 | 1016.8 |
| 20260831225424 | 53 | 225 | 1.0 | 4.0 | 0.00 | 0.01 | 0.01 | 97 | 1017.0 |
| 20260831224913 | 53 | 270 | 2.0 | 4.0 | 0.00 | 0.01 | 0.01 | 97 | 1017.0 |
| 20260831224404 | 53 | 203 | 2.0 | 6.0 | 0.00 | 0.01 | 0.01 | 96 | 1017.0 |
| 20260831223854 | 53 | 203 | 1.0 | 6.0 | 0.00 | 0.01 | 0.01 | 96 | 1017.0 |
| 20260831223344 | 53 | 338 | 1.0 | 2.0 | 0.00 | 0.01 | 0.01 | 96 | 1016.7 |
| 20260831222833 | 53 | 270 | 0.0 | 2.0 | 0.00 | 0.01 | 0.01 | 96 | 1016.5 |
| 20260831222324 | 53 | 0 | 0.0 | 2.0 | 0.00 | 0.01 | 0.01 | 96 | 1016.5 |
| 20260831221813 | 53 | 158 | 1.0 | 2.0 | 0.00 | 0.01 | 0.01 | 96 | 1016.5 |
| 20260831221304 | 53 | 0 | 0.0 | 2.0 | 0.00 | 0.01 | 0.01 | 96 | 1016.6 |
| 20260831220753 | 53 | 45 | 0.0 | 2.0 | 0.00 | 0.01 | 0.01 | 96 | 1016.4 |
| 20260831220243 | 53 | 293 | 0.0 | 2.0 | 0.00 | 0.01 | 0.01 | 96 | 1016.3 |
| 20260831215227 | 53 | 293 | 1.0 | 4.0 | 0.00 | 0.01 | 0.01 | 95 | 1016.2 |
| 20260831214712 | 53 | 203 | 0.0 | 4.0 | 0.00 | 0.01 | 0.01 | 95 | 1016.2 |
| 20260831214202 | 53 | 45 | 0.0 | 4.0 | 0.00 | 0.01 | 0.01 | 95 | 1016.0 |
| 20260831213652 | 53 | 68 | 0.0 | 6.0 | 0.00 | 0.01 | 0.01 | 95 | 1016.1 |
| 20260831212631 | 53 | 270 | 1.0 | 6.0 | 0.00 | 0.01 | 0.01 | 95 | 1016.3 |
| 20260831212122 | 53 | 270 | 2.0 | 6.0 | 0.00 | 0.01 | 0.01 | 94 | 1016.2 |
| 20260831211611 | 53 | 225 | 2.0 | 4.0 | 0.00 | 0.01 | 0.01 | 94 | 1016.1 |
| 20260831211101 | 53 | 203 | 2.0 | 4.0 | 0.00 | 0.01 | 0.01 | 94 | 1016.0 |
| 20260831210551 | 53 | 203 | 2.0 | 4.0 | 0.00 | 0.01 | 0.01 | 93 | 1016.1 |
| 20260831210042 | 53 | 225 | 2.0 | 4.0 | 0.00 | 0.01 | 0.01 | 93 | 1016.3 |
| 20260831204510 | 54 | 158 | 2.0 | 6.0 | 0.00 | 0.01 | 0.01 | 92 | 1015.9 |
| 20260831204000 | 54 | 248 | 2.0 | 6.0 | 0.00 | 0.01 | 0.01 | 92 | 1016.0 |
| 20260831203450 | 54 | 293 | 2.0 | 6.0 | 0.00 | 0.01 | 0.01 | 91 | 1016.0 |
| 20260831202940 | 55 | 158 | 1.0 | 6.0 | 0.00 | 0.01 | 0.01 | 90 | 1015.9 |
| 20260831202434 | 55 | 248 | 2.0 | 4.0 | 0.00 | 0.01 | 0.01 | 90 | 1016.0 |
| 20260831201924 | 55 | 293 | 2.0 | 4.0 | 0.00 | 0.01 | 0.01 | 90 | 1015.9 |
| 20260831201409 | 56 | 248 | 1.0 | 4.0 | 0.00 | 0.01 | 0.01 | 89 | 1015.9 |
| 20260831200900 | 56 | 0 | 0.0 | 4.0 | 0.00 | 0.01 | 0.01 | 89 | 1015.8 |
| 20260831200349 | 56 | 68 | 1.0 | 4.0 | 0.00 | 0.01 | 0.01 | 88 | 1015.7 |
| 20260831195329 | 56 | 225 | 1.0 | 4.0 | 0.00 | 0.01 | 0.01 | 87 | 1015.8 |
| 20260831194818 | 57 | 248 | 0.0 | 4.0 | 0.00 | 0.01 | 0.01 | 86 | 1015.9 |
| 20260831194309 | 57 | 68 | 0.0 | 4.0 | 0.00 | 0.01 | 0.01 | 86 | 1015.9 |
| 20260831193759 | 57 | 90 | 0.0 | 4.0 | 0.00 | 0.01 | 0.01 | 87 | 1015.8 |
| 20260831193248 | 57 | 45 | 0.0 | 4.0 | 0.00 | 0.01 | 0.01 | 87 | 1015.6 |
| 20260831192738 | 57 | 23 | 1.0 | 4.0 | 0.00 | 0.01 | 0.01 | 87 | 1015.9 |
| 20260831192228 | 56 | 225 | 1.0 | 4.0 | 0.00 | 0.01 | 0.01 | 87 | 1015.9 |
| 20260831191722 | 57 | 180 | 1.0 | 2.0 | 0.00 | 0.01 | 0.01 | 86 | 1015.8 |
| 20260831190700 | 57 | 45 | 0.0 | 4.0 | 0.00 | 0.01 | 0.01 | 86 | 1015.8 |
| 20260831190149 | 58 | 68 | 1.0 | 4.0 | 0.00 | 0.01 | 0.01 | 84 | 1015.8 |
| 20260831185640 | 58 | 225 | 0.0 | 2.0 | 0.00 | 0.01 | 0.01 | 84 | 1015.8 |
| 20260831185130 | 58 | 23 | 0.0 | 2.0 | 0.00 | 0.01 | 0.01 | 83 | 1015.7 |
| 20260831184620 | 59 | 23 | 0.0 | 2.0 | 0.00 | 0.01 | 0.01 | 81 | 1015.7 |
| 20260831184111 | 58 | 293 | 0.0 | 4.0 | 0.00 | 0.01 | 0.01 | 82 | 1015.8 |
| 20260831183559 | 59 | 270 | 1.0 | 4.0 | 0.00 | 0.01 | 0.01 | 81 | 1015.7 |
| 20260831183051 | 60 | 338 | 0.0 | 2.0 | 0.00 | 0.01 | 0.01 | 81 | 1015.7 |
| 20260831182540 | 60 | 113 | 0.0 | 2.0 | 0.00 | 0.01 | 0.01 | 79 | 1015.7 |
| 20260831181520 | 61 | 135 | 0.0 | 2.0 | 0.00 | 0.01 | 0.01 | 78 | 1015.6 |
| 20260831181009 | 61 | 203 | 0.0 | 4.0 | 0.00 | 0.01 | 0.01 | 78 | 1015.7 |
| 20260831180458 | 60 | 248 | 0.0 | 4.0 | 0.00 | 0.01 | 0.01 | 80 | 1015.8 |
| 20260831175948 | 60 | 0 | 1.0 | 4.0 | 0.00 | 0.01 | 0.01 | 79 | 1015.8 |
| 20260831175439 | 60 | 315 | 0.0 | 4.0 | 0.00 | 0.01 | 0.01 | 81 | 1015.6 |
| 20260831174928 | 60 | 90 | 1.0 | 4.0 | 0.00 | 0.01 | 0.01 | 80 | 1015.7 |
| 20260831174417 | 60 | 338 | 0.0 | 4.0 | 0.00 | 0.01 | 0.01 | 80 | 1015.6 |
| 20260831173357 | 60 | 113 | 0.0 | 4.0 | 0.00 | 0.01 | 0.01 | 81 | 1015.7 |
| 20260831172848 | 59 | 45 | 1.0 | 4.0 | 0.00 | 0.01 | 0.01 | 82 | 1015.5 |
| 20260831172337 | 59 | 158 | 1.0 | 4.0 | 0.00 | 0.01 | 0.01 | 82 | 1015.6 |
| 20260831171827 | 58 | 225 | 0.0 | 4.0 | 0.00 | 0.01 | 0.01 | 83 | 1015.7 |
| 20260831171316 | 58 | 225 | 1.0 | 4.0 | 0.00 | 0.01 | 0.01 | 84 | 1015.7 |
| 20260831170806 | 59 | 158 | 0.0 | 4.0 | 0.00 | 0.01 | 0.01 | 81 | 1015.8 |
| 20260831170256 | 60 | 180 | 2.0 | 4.0 | 0.00 | 0.01 | 0.01 | 79 | 1016.0 |
| 20260831165747 | 60 | 248 | 1.0 | 4.0 | 0.00 | 0.01 | 0.01 | 80 | 1015.9 |
| 20260831165237 | 61 | 293 | 1.0 | 4.0 | 0.00 | 0.01 | 0.01 | 79 | 1015.9 |
| 20260831164726 | 60 | 225 | 2.0 | 2.0 | 0.00 | 0.01 | 0.01 | 80 | 1016.0 |
| 20260831164221 | 60 | 203 | 2.0 | 4.0 | 0.00 | 0.01 | 0.01 | 80 | 1016.3 |
| 20260831163705 | 60 | 270 | 0.0 | 4.0 | 0.00 | 0.01 | 0.01 | 81 | 1016.2 |
| 20260831163155 | 60 | 248 | 1.0 | 4.0 | 0.00 | 0.01 | 0.01 | 82 | 1016.2 |
| 20260831162137 | 60 | 23 | 2.0 | 6.0 | 0.00 | 0.01 | 0.01 | 82 | 1016.2 |
| 20260831161625 | 60 | 158 | 2.0 | 6.0 | 0.00 | 0.01 | 0.01 | 82 | 1016.3 |
| 20260831161115 | 60 | 113 | 0.0 | 4.0 | 0.00 | 0.01 | 0.01 | 82 | 1016.4 |
| 20260831160605 | 60 | 158 | 2.0 | 4.0 | 0.00 | 0.01 | 0.01 | 81 | 1016.5 |
| 20260831160059 | 60 | 293 | 1.0 | 4.0 | 0.00 | 0.01 | 0.01 | 82 | 1016.8 |
| 20260831155544 | 61 | 0 | 1.0 | 4.0 | 0.00 | 0.01 | 0.01 | 81 | 1016.7 |
| 20260831155035 | 61 | 158 | 2.0 | 4.0 | 0.00 | 0.01 | 0.01 | 80 | 1016.7 |
| 20260831154014 | 62 | 248 | 1.0 | 4.0 | 0.00 | 0.01 | 0.01 | 79 | 1016.5 |
| 20260831153505 | 62 | 248 | 2.0 | 4.0 | 0.00 | 0.01 | 0.01 | 79 | 1016.7 |
| 20260831152958 | 63 | 338 | 0.0 | 4.0 | 0.00 | 0.01 | 0.01 | 78 | 1016.7 |
| 20260831151933 | 62 | 45 | 2.0 | 4.0 | 0.00 | 0.01 | 0.01 | 79 | 1016.6 |
| 20260831151423 | 62 | 203 | 2.0 | 4.0 | 0.00 | 0.01 | 0.01 | 80 | 1016.7 |
| 20260831150914 | 62 | 0 | 2.0 | 4.0 | 0.00 | 0.01 | 0.01 | 79 | 1016.8 |
| 20260831145854 | 61 | 225 | 1.0 | 8.0 | 0.00 | 0.01 | 0.01 | 80 | 1016.8 |
| 20260831145343 | 62 | 338 | 2.0 | 4.0 | 0.00 | 0.01 | 0.01 | 79 | 1016.9 |
| 20260831144832 | 62 | 113 | 0.0 | 7.0 | 0.00 | 0.01 | 0.01 | 79 | 1016.8 |
| 20260831144322 | 62 | 315 | 2.0 | 7.0 | 0.00 | 0.01 | 0.01 | 79 | 1016.8 |
| 20260831143812 | 62 | 338 | 1.0 | 6.0 | 0.00 | 0.01 | 0.01 | 78 | 1016.9 |
| 20260831143302 | 62 | 23 | 1.0 | 7.0 | 0.00 | 0.01 | 0.01 | 78 | 1016.9 |
| 20260831142752 | 63 | 315 | 1.0 | 7.0 | 0.00 | 0.01 | 0.01 | 77 | 1016.9 |
| 20260831142243 | 63 | 135 | 1.0 | 4.0 | 0.00 | 0.01 | 0.01 | 76 | 1016.8 |
| 20260831141732 | 63 | 90 | 2.0 | 4.0 | 0.00 | 0.01 | 0.01 | 76 | 1016.8 |
| 20260831141223 | 62 | 225 | 2.0 | 4.0 | 0.00 | 0.01 | 0.01 | 76 | 1016.8 |
| 20260831140711 | 62 | 45 | 2.0 | 6.0 | 0.00 | 0.01 | 0.01 | 78 | 1016.9 |
| 20260831135651 | 61 | 113 | 2.0 | 6.0 | 0.00 | 0.01 | 0.01 | 79 | 1016.8 |
| 20260831135141 | 61 | 248 | 3.0 | 8.0 | 0.00 | 0.01 | 0.01 | 80 | 1016.6 |
| 20260831134631 | 60 | 315 | 2.0 | 8.0 | 0.00 | 0.01 | 0.01 | 80 | 1016.6 |
| 20260831133611 | 60 | 180 | 2.0 | 4.0 | 0.00 | 0.01 | 0.01 | 82 | 1016.8 |
| 20260831133100 | 59 | 158 | 1.0 | 4.0 | 0.00 | 0.01 | 0.01 | 84 | 1016.6 |
| 20260831132551 | 59 | 23 | 2.0 | 4.0 | 0.00 | 0.01 | 0.01 | 84 | 1016.4 |
| 20260831132041 | 59 | 203 | 1.0 | 4.0 | 0.00 | 0.01 | 0.01 | 85 | 1016.2 |
| 20260831131020 | 58 | 113 | 2.0 | 7.0 | 0.00 | 0.01 | 0.01 | 87 | 1016.2 |
| 20260831130510 | 58 | 270 | 1.0 | 4.0 | 0.00 | 0.01 | 0.01 | 88 | 1016.0 |
| 20260831130003 | 58 | 293 | 2.0 | 4.0 | 0.00 | 0.01 | 0.01 | 89 | 1016.0 |
| 20260831125450 | 57 | 45 | 1.0 | 4.0 | 0.00 | 0.01 | 0.01 | 90 | 1015.9 |
| 20260831124940 | 57 | 293 | 0.0 | 4.0 | 0.00 | 0.01 | 0.01 | 92 | 1016.0 |
| 20260831124429 | 56 | 225 | 1.0 | 4.0 | 0.00 | 0.01 | 0.01 | 93 | 1016.1 |
| 20260831123919 | 56 | 180 | 2.0 | 4.0 | 0.00 | 0.01 | 0.01 | 94 | 1016.2 |
| 20260831123409 | 56 | 338 | 0.0 | 4.0 | 0.00 | 0.01 | 0.01 | 95 | 1016.1 |
| 20260831122858 | 56 | 0 | 0.0 | 4.0 | 0.01 | 0.01 | 0.01 | 96 | 1015.9 |
| 20260831122354 | 56 | 270 | 1.0 | 4.0 | 0.01 | 0.01 | 0.01 | 96 | 1016.0 |
| 20260831121839 | 56 | 90 | 1.0 | 4.0 | 0.01 | 0.01 | 0.01 | 97 | 1016.1 |
| 20260831121329 | 55 | 90 | 1.0 | 4.0 | 0.01 | 0.01 | 0.01 | 97 | 1016.0 |
| 20260831120818 | 55 | 113 | 2.0 | 4.0 | 0.01 | 0.01 | 0.01 | 97 | 1015.7 |
| 20260831120310 | 55 | 248 | 0.0 | 4.0 | 0.01 | 0.01 | 0.01 | 97 | 1015.6 |
| 20260831115247 | 55 | 90 | 1.0 | 4.0 | 0.01 | 0.01 | 0.01 | 98 | 1015.6 |
| 20260831114743 | 54 | 248 | 0.0 | 4.0 | 0.01 | 0.01 | 0.01 | 98 | 1015.4 |
| 20260831114227 | 54 | 203 | 1.0 | 4.0 | 0.01 | 0.01 | 0.01 | 98 | 1015.4 |
| 20260831113717 | 53 | 293 | 0.0 | 2.0 | 0.01 | 0.01 | 0.01 | 98 | 1015.6 |
| 20260831113207 | 53 | 225 | 0.0 | 2.0 | 0.01 | 0.01 | 0.01 | 98 | 1015.6 |
| 20260831112147 | 53 | 203 | 1.0 | 4.0 | 0.00 | 0.00 | 0.00 | 98 | 1015.6 |
| 20260831111637 | 52 | 203 | 0.0 | 2.0 | 0.00 | 0.00 | 0.00 | 98 | 1015.4 |
| 20260831110617 | 52 | 248 | 0.0 | 2.0 | 0.00 | 0.00 | 0.00 | 98 | 1015.7 |
| 20260831110106 | 51 | 113 | 1.0 | 2.0 | 0.00 | 0.00 | 0.00 | 98 | 1015.5 |
| 20260831105557 | 51 | 225 | 0.0 | 2.0 | 0.00 | 0.00 | 0.00 | 98 | 1015.5 |
| 20260831105046 | 51 | 248 | 0.0 | 0.0 | 0.00 | 0.00 | 0.00 | 98 | 1015.4 |
| 20260831104535 | 50 | 0 | 0.0 | 0.0 | 0.00 | 0.00 | 0.00 | 98 | 1015.6 |
| 20260831104026 | 50 | 0 | 0.0 | 0.0 | 0.00 | 0.00 | 0.00 | 98 | 1015.2 |
| 20260831103005 | 50 | 0 | 0.0 | 0.0 | 0.00 | 0.00 | 0.00 | 98 | 1015.4 |
| 20260831102455 | 50 | 0 | 0.0 | 0.0 | 0.00 | 0.00 | 0.00 | 98 | 1015.5 |
| 20260831101946 | 51 | 0 | 0.0 | 0.0 | 0.00 | 0.00 | 0.00 | 98 | 1015.4 |
| 20260831101435 | 51 | 0 | 0.0 | 2.0 | 0.00 | 0.00 | 0.00 | 98 | 1015.0 |
| 20260831100925 | 51 | 0 | 0.0 | 2.0 | 0.00 | 0.00 | 0.00 | 98 | 1015.4 |
| 20260831100414 | 51 | 0 | 0.0 | 2.0 | 0.00 | 0.00 | 0.00 | 98 | 1015.4 |
| 20260831095905 | 51 | 180 | 0.0 | 2.0 | 0.00 | 0.00 | 0.00 | 98 | 1015.3 |
| 20260831095354 | 51 | 293 | 0.0 | 2.0 | 0.00 | 0.00 | 0.00 | 98 | 1015.2 |
| 20260831094844 | 51 | 23 | 0.0 | 2.0 | 0.00 | 0.00 | 0.00 | 98 | 1015.3 |
| 20260831094345 | 51 | 203 | 1.0 | 4.0 | 0.00 | 0.00 | 0.00 | 98 | 1015.3 |
| 20260831093314 | 52 | 225 | 1.0 | 2.0 | 0.00 | 0.00 | 0.00 | 98 | 1015.3 |
| 20260831092804 | 51 | 90 | 1.0 | 2.0 | 0.00 | 0.00 | 0.00 | 98 | 1015.6 |
| 20260831092254 | 51 | 158 | 0.0 | 2.0 | 0.00 | 0.00 | 0.00 | 98 | 1015.4 |
| 20260831091748 | 52 | 203 | 1.0 | 2.0 | 0.00 | 0.00 | 0.00 | 98 | 1015.4 |
| 20260831090723 | 52 | 203 | 1.0 | 2.0 | 0.00 | 0.00 | 0.00 | 98 | 1015.3 |
| 20260831090213 | 52 | 135 | 0.0 | 4.0 | 0.00 | 0.00 | 0.00 | 98 | 1015.3 |
| 20260831085703 | 52 | 180 | 1.0 | 4.0 | 0.00 | 0.00 | 0.00 | 98 | 1015.3 |
| 20260831085152 | 52 | 158 | 1.0 | 2.0 | 0.00 | 0.00 | 0.00 | 97 | 1015.3 |
| 20260831084643 | 52 | 23 | 0.0 | 2.0 | 0.00 | 0.00 | 0.00 | 97 | 1015.5 |
| 20260831082603 | 52 | 293 | 0.0 | 2.0 | 0.00 | 0.00 | 0.00 | 97 | 1015.2 |
| 20260831082052 | 51 | 338 | 0.0 | 2.0 | 0.00 | 0.00 | 0.00 | 97 | 1015.2 |
| 20260831081032 | 50 | 203 | 0.0 | 0.0 | 0.00 | 0.00 | 0.00 | 97 | 1015.2 |
| 20260831080521 | 50 | 135 | 0.0 | 0.0 | 0.00 | 0.00 | 0.00 | 97 | 1015.2 |
| 20260831075501 | 51 | 113 | 0.0 | 0.0 | 0.00 | 0.00 | 0.00 | 97 | 1015.1 |
| 20260831074441 | 52 | 135 | 0.0 | 0.0 | 0.00 | 0.00 | 0.00 | 97 | 1015.1 |
| 20260831073931 | 52 | 270 | 0.0 | 2.0 | 0.00 | 0.00 | 0.00 | 97 | 1015.2 |
| 20260831072915 | 53 | 203 | 0.0 | 4.0 | 0.00 | 0.00 | 0.00 | 97 | 1015.1 |
| 20260831072400 | 53 | 225 | 1.0 | 4.0 | 0.00 | 0.00 | 0.00 | 97 | 1015.2 |
| 20260831071850 | 53 | 68 | 0.0 | 6.0 | 0.00 | 0.00 | 0.00 | 97 | 1014.9 |
| 20260831071340 | 53 | 45 | 1.0 | 6.0 | 0.00 | 0.00 | 0.00 | 97 | 1014.9 |
| 20260831070319 | 53 | 225 | 2.0 | 4.0 | 0.00 | 0.00 | 0.00 | 97 | 1015.0 |
| 20260831065809 | 53 | 248 | 1.0 | 4.0 | 0.00 | 0.00 | 0.00 | 97 | 1014.9 |
| 20260831064749 | 53 | 68 | 1.0 | 4.0 | 0.00 | 0.00 | 0.00 | 97 | 1015.1 |
| 20260831064239 | 53 | 248 | 0.0 | 4.0 | 0.00 | 0.00 | 0.00 | 97 | 1015.3 |
| 20260831063729 | 52 | 225 | 2.0 | 4.0 | 0.00 | 0.00 | 0.00 | 97 | 1015.1 |
| 20260831062713 | 52 | 225 | 0.0 | 2.0 | 0.00 | 0.00 | 0.00 | 97 | 1015.1 |
| 20260831062159 | 52 | 90 | 0.0 | 4.0 | 0.00 | 0.00 | 0.00 | 97 | 1015.1 |
| 20260831061648 | 52 | 203 | 1.0 | 4.0 | 0.00 | 0.00 | 0.00 | 97 | 1015.1 |
| 20260831061138 | 52 | 113 | 0.0 | 4.0 | 0.00 | 0.00 | 0.00 | 97 | 1015.3 |
| 20260831060628 | 52 | 270 | 0.0 | 4.0 | 0.00 | 0.00 | 0.00 | 97 | 1015.1 |
| 20260831060118 | 52 | 45 | 1.0 | 4.0 | 0.00 | 0.00 | 0.00 | 97 | 1015.6 |
| 20260831055608 | 52 | 248 | 0.0 | 2.0 | 0.00 | 0.00 | 0.00 | 97 | 1015.5 |
| 20260831055057 | 52 | 338 | 0.0 | 2.0 | 0.00 | 0.00 | 0.00 | 97 | 1015.6 |
| 20260831054037 | 52 | 180 | 0.0 | 4.0 | 0.00 | 0.00 | 0.00 | 97 | 1015.5 |
| 20260831053527 | 52 | 248 | 0.0 | 0.0 | 0.00 | 0.00 | 0.00 | 97 | 1016.1 |
| 20260831052603 | 52 | 180 | 1.0 | 2.0 | 0.00 | 0.00 | 0.00 | 97 | 1016.0 |
| 20260831052052 | 52 | 45 | 0.0 | 2.0 | 0.00 | 0.00 | 0.00 | 97 | 1015.8 |
| 20260831051543 | 52 | 0 | 0.0 | 2.0 | 0.00 | 0.00 | 0.00 | 97 | 1015.7 |
| 20260831051032 | 52 | 113 | 0.0 | 2.0 | 0.00 | 0.00 | 0.00 | 97 | 1015.9 |
| 20260831050522 | 52 | 248 | 0.0 | 2.0 | 0.00 | 0.00 | 0.00 | 97 | 1015.7 |
| 20260831050012 | 52 | 0 | 0.0 | 4.0 | 0.00 | 0.00 | 0.00 | 97 | 1016.0 |
| 20260831045502 | 52 | 315 | 0.0 | 4.0 | 0.00 | 0.00 | 0.00 | 97 | 1016.0 |
| 20260831044441 | 51 | 135 | 0.0 | 2.0 | 0.00 | 0.00 | 0.00 | 97 | 1015.8 |
| 20260831043932 | 51 | 135 | 0.0 | 2.0 | 0.00 | 0.00 | 0.00 | 97 | 1016.0 |
| 20260831040830 | 51 | 135 | 0.0 | 2.0 | 0.00 | 0.00 | 0.00 | 97 | 1015.6 |
| 20260831040320 | 51 | 135 | 0.0 | 2.0 | 0.00 | 0.00 | 0.00 | 97 | 1015.8 |
| 20260831035810 | 51 | 135 | 0.0 | 2.0 | 0.00 | 0.00 | 0.00 | 97 | 1015.9 |
| 20260831035300 | 51 | 158 | 0.0 | 2.0 | 0.00 | 0.00 | 0.00 | 97 | 1015.7 |
| 20260831034750 | 51 | 225 | 0.0 | 2.0 | 0.00 | 0.00 | 0.00 | 97 | 1015.9 |
| 20260831034240 | 51 | 90 | 0.0 | 2.0 | 0.00 | 0.00 | 0.00 | 96 | 1016.0 |
| 20260831033729 | 51 | 248 | 0.0 | 2.0 | 0.00 | 0.00 | 0.00 | 96 | 1015.9 |
| 20260831033220 | 50 | 293 | 0.0 | 2.0 | 0.00 | 0.00 | 0.00 | 96 | 1015.7 |
| 20260831032709 | 50 | 203 | 0.0 | 2.0 | 0.00 | 0.00 | 0.00 | 96 | 1015.6 |
| 20260831032159 | 50 | 23 | 0.0 | 2.0 | 0.00 | 0.00 | 0.00 | 96 | 1015.8 |
| 20260831031649 | 51 | 225 | 0.0 | 2.0 | 0.00 | 0.00 | 0.00 | 96 | 1015.7 |
| 20260831031138 | 50 | 248 | 0.0 | 2.0 | 0.00 | 0.00 | 0.00 | 96 | 1015.8 |
| 20260831030636 | 50 | 248 | 0.0 | 2.0 | 0.00 | 0.00 | 0.00 | 96 | 1015.9 |
| 20260831030119 | 50 | 225 | 0.0 | 2.0 | 0.00 | 0.00 | 0.00 | 96 | 1016.0 |
| 20260831025609 | 50 | 225 | 1.0 | 2.0 | 0.00 | 0.00 | 0.00 | 96 | 1016.0 |
| 20260831025058 | 50 | 225 | 0.0 | 2.0 | 0.00 | 0.00 | 0.00 | 96 | 1016.0 |
| 20260831023018 | 50 | 203 | 0.0 | 0.0 | 0.00 | 0.00 | 0.00 | 96 | 1016.5 |